Torna al catalogo

CZ-6A DEB

AttivoPO
NORAD 61827·DEBRIS·🇨🇳 China

Lanciato Aug 6, 2024 da Taiyuan Satellite Launch Center

Loading…

Prossimi Passaggi (prossime 24 ore)

TLE

AggiornatoSource: Space-Track

Epoca: Sep 14, 2026, 09:40 UTC

1 61827U 24140ACT 26257.40342311  .00001988  00000-0  10459-2 0  9992
2 61827  88.8551 253.6063 0099704 309.2379  49.9988 14.11210873103221

Traccia CZ-6A DEB in tempo reale con AllMySat

Download on the App Store